W4NDF-13 Weather Reports


Display with metric or nautical units.
time (UTC)temp
F
wind
direction
speed
MPH
gust
MPH
rain 1hr
in
rain 24hr
in
rain mn
in
humidity
%
barometer
mb
20260510152751 76 5 2.0 8.0 0.00 0.01 0.01 87 1017.5
20260510152248 76 33 5.0 8.0 0.00 0.01 0.01 88 1017.4
20260510151744 77 38 2.0 4.0 0.00 0.01 0.01 86 1017.4
20260510151243 77 140 3.0 6.0 0.00 0.01 0.01 84 1017.2
20260510150738 76 63 5.0 8.0 0.00 0.01 0.01 85 1017.5
20260510150234 76 85 4.0 8.0 0.00 0.01 0.01 85 1017.5
20260510145730 76 122 3.0 7.0 0.00 0.01 0.01 87 1017.5
20260510145227 75 82 2.0 7.0 0.00 0.01 0.01 88 1017.6
20260510144723 75 78 5.0 7.0 0.00 0.01 0.01 88 1017.7
20260510144220 75 148 4.0 6.0 0.00 0.01 0.01 88 1017.9
20260510143714 75 106 3.0 6.0 0.00 0.01 0.01 89 1017.4
20260510143211 74 107 5.0 7.0 0.00 0.01 0.01 92 1017.3
20260510142708 73 122 4.0 4.0 0.00 0.01 0.01 95 1017.4
20260510142204 72 65 4.0 7.0 0.00 0.01 0.01 99 1017.2
20260510141701 72 37 2.0 6.0 0.00 0.01 0.01 99 1017.2
20260510141200 71 79 2.0 6.0 0.00 0.01 0.01 99 1017.3
20260510140655 71 101 5.0 8.0 0.00 0.01 0.01 99 1017.5
20260510140155 71 91 6.0 7.0 0.00 0.01 0.01 99 1017.2
20260510135650 71 356 3.0 7.0 0.00 0.01 0.01 99 1017.2
20260510135147 71 93 4.0 7.0 0.00 0.01 0.01 99 1017.3
20260510134644 71 83 3.0 6.0 0.00 0.01 0.01 99 1017.2
20260510134141 71 94 4.0 7.0 0.00 0.01 0.01 99 1017.2
20260510133637 70 115 3.0 8.0 0.00 0.01 0.01 99 1017.2
20260510133132 70 116 1.0 4.0 0.00 0.01 0.01 99 1017.3
20260510132630 70 111 3.0 4.0 0.00 0.01 0.01 99 1017.2
20260510132127 70 67 5.0 6.0 0.00 0.01 0.01 99 1017.0
20260510131624 69 88 2.0 6.0 0.00 0.01 0.01 99 1017.0
20260510131121 69 96 2.0 7.0 0.00 0.01 0.01 99 1016.9
20260510130618 69 113 0.0 4.0 0.00 0.01 0.01 99 1016.8
20260510130115 69 52 2.0 3.0 0.00 0.01 0.01 99 1016.6
20260510125612 69 72 0.0 2.0 0.00 0.01 0.01 99 1016.6
20260510125108 69 341 1.0 4.0 0.00 0.01 0.01 99 1016.4
20260510124604 69 13 1.0 3.0 0.00 0.01 0.01 99 1016.2
20260510124101 69 75 0.0 3.0 0.00 0.01 0.01 99 1016.2
20260510123556 69 43 0.0 2.0 0.00 0.01 0.01 99 1016.2
20260510123053 69 350 2.0 2.0 0.00 0.01 0.01 99 1016.3
20260510122549 69 51 1.0 4.0 0.00 0.01 0.01 99 1016.2
20260510122045 68 71 2.0 4.0 0.00 0.01 0.01 99 1016.1
20260510121542 68 76 1.0 4.0 0.00 0.01 0.01 99 1016.1
20260510121039 68 114 2.0 3.0 0.00 0.01 0.01 99 1015.9
20260510120537 68 71 1.0 2.0 0.00 0.01 0.01 99 1015.9
20260510120032 68 100 1.0 2.0 0.00 0.01 0.01 99 1016.1
20260510115529 68 99 1.0 2.0 0.00 0.01 0.01 99 1015.8
20260510115026 68 130 1.0 2.0 0.00 0.01 0.01 99 1015.9
20260510114522 68 100 0.0 1.0 0.00 0.01 0.01 99 1015.8
20260510114018 68 112 2.0 3.0 0.00 0.01 0.01 99 1015.7
20260510113514 68 118 4.0 6.0 0.00 0.01 0.01 99 1015.5
20260510113012 68 115 2.0 6.0 0.00 0.01 0.01 99 1015.4
20260510112508 68 114 1.0 1.0 0.00 0.01 0.01 99 1015.3
20260510112004 68 103 3.0 4.0 0.00 0.01 0.01 99 1015.2
20260510111501 68 90 2.0 4.0 0.00 0.01 0.01 99 1015.1
20260510110957 68 111 3.0 3.0 0.00 0.01 0.01 99 1015.1
20260510110453 68 53 1.0 4.0 0.00 0.01 0.01 99 1015.2
20260510105949 68 92 1.0 2.0 0.00 0.01 0.01 99 1015.0
20260510105445 68 116 2.0 2.0 0.00 0.01 0.01 99 1014.8
20260510104940 68 69 1.0 3.0 0.00 0.01 0.01 99 1014.8
20260510104437 68 76 2.0 2.0 0.00 0.01 0.01 99 1014.7
20260510103933 68 96 0.0 0.0 0.00 0.01 0.01 99 1014.3
20260510103431 68 78 0.0 0.0 0.00 0.01 0.01 99 1014.5
20260510102926 68 101 1.0 2.0 0.00 0.01 0.01 99 1014.1
20260510102422 68 89 1.0 1.0 0.00 0.01 0.01 99 1014.4
20260510101919 68 109 1.0 2.0 0.00 0.01 0.01 99 1014.1
20260510101417 68 111 2.0 3.0 0.00 0.01 0.01 99 1014.0
20260510100914 68 148 1.0 3.0 0.00 0.01 0.01 99 1014.0
20260510100411 68 130 3.0 3.0 0.00 0.01 0.01 99 1013.8
20260510095907 68 162 1.0 2.0 0.00 0.01 0.01 99 1014.0
20260510095403 68 89 0.0 1.0 0.00 0.01 0.01 99 1014.0
20260510094902 68 5 0.0 0.0 0.00 0.01 0.01 99 1013.8
20260510094357 68 110 0.0 2.0 0.00 0.01 0.01 99 1014.0
20260510093854 68 103 2.0 4.0 0.00 0.01 0.01 99 1014.0
20260510093349 68 94 1.0 1.0 0.00 0.01 0.01 99 1013.9
20260510092846 68 56 1.0 2.0 0.00 0.01 0.01 99 1014.0
20260510092342 68 94 1.0 2.0 0.00 0.01 0.01 99 1014.0
20260510091838 68 68 1.0 2.0 0.00 0.01 0.01 99 1013.6
20260510091335 68 52 2.0 3.0 0.00 0.01 0.01 99 1013.7
20260510090832 68 93 0.0 2.0 0.00 0.01 0.01 99 1013.8
20260510090328 68 94 1.0 1.0 0.00 0.01 0.01 99 1013.6
20260510085824 68 87 0.0 1.0 0.00 0.01 0.01 99 1013.6
20260510085324 68 307 0.0 2.0 0.00 0.01 0.01 99 1013.8
20260510084820 68 54 1.0 4.0 0.00 0.01 0.01 99 1013.7
20260510084317 68 77 2.0 3.0 0.00 0.01 0.01 99 1013.7
20260510083814 68 325 0.0 3.0 0.00 0.01 0.01 99 1013.8
20260510083311 68 66 0.0 2.0 0.00 0.01 0.01 99 1013.7
20260510082806 68 29 2.0 3.0 0.00 0.01 0.01 99 1013.7
20260510082306 67 325 0.0 1.0 0.00 0.01 0.01 99 1013.9
20260510081802 66 265 0.0 0.0 0.00 0.01 0.01 99 1013.7
20260510081258 66 281 0.0 0.0 0.00 0.01 0.01 99 1013.6
20260510080754 66 284 0.0 0.0 0.00 0.01 0.01 99 1013.4
20260510080249 66 304 0.0 0.0 0.00 0.01 0.01 99 1013.3
20260510075747 66 284 0.0 0.0 0.00 0.01 0.01 99 1013.4
20260510075244 66 289 0.0 0.0 0.00 0.01 0.01 99 1013.6
20260510074741 66 279 0.0 0.0 0.00 0.01 0.01 99 1013.4
20260510074238 66 277 0.0 0.0 0.00 0.01 0.01 99 1013.4
20260510073734 66 278 0.0 0.0 0.00 0.01 0.01 99 1013.4
20260510073230 67 292 0.0 0.0 0.00 0.01 0.01 99 1013.2
20260510072726 67 308 0.0 0.0 0.05 0.01 0.01 99 1013.2
20260510072222 67 2 0.0 0.0 0.05 0.01 0.01 99 1013.1
20260510071719 67 58 0.0 0.0 0.00 0.00 0.00 99 1013.0
20260510071216 67 159 0.0 0.0 0.00 0.00 0.00 99 1013.0
20260510070714 67 115 0.0 0.0 0.00 0.00 0.00 99 1013.2
20260510070211 67 288 0.0 0.0 0.00 0.00 0.00 99 1013.1
20260510065706 67 316 0.0 0.0 0.00 0.00 0.00 99 1013.2
20260510065202 67 357 1.0 1.0 0.00 0.00 0.00 99 1013.1
20260510064659 67 334 0.0 0.0 0.00 0.00 0.00 99 1013.0
20260510064156 67 295 0.0 0.0 0.00 0.00 0.00 99 1013.1
20260510063653 67 284 0.0 0.0 0.00 0.00 0.00 99 1013.0
20260510063149 67 300 0.0 0.0 0.00 0.00 0.00 99 1012.8
20260510062646 67 269 0.0 0.0 0.00 0.00 0.00 99 1012.9
20260510062142 67 3 0.0 0.0 0.00 0.00 0.00 99 1013.1
20260510061637 67 348 0.0 0.0 0.00 0.00 0.00 99 1013.3
20260510061135 67 276 0.0 0.0 0.00 0.00 0.00 99 1013.3
20260510060631 67 345 0.0 0.0 0.00 0.00 0.00 99 1013.4
20260510060128 67 335 0.0 0.0 0.00 0.00 0.00 99 1013.4
20260510055624 67 335 0.0 0.0 0.00 0.00 0.00 99 1013.6
20260510055122 67 335 0.0 0.0 0.00 0.00 0.00 99 1013.4
20260510054617 67 335 0.0 0.0 0.00 0.00 0.00 99 1013.5
20260510054113 68 335 0.0 0.0 0.00 0.00 0.00 99 1013.4
20260510053612 68 131 0.0 0.0 0.00 0.00 0.00 99 1012.9
20260510053110 68 89 0.0 0.0 0.00 0.00 0.00 99 1013.2
20260510052605 68 58 0.0 1.0 0.00 0.00 0.00 99 1013.3
20260510052102 68 154 0.0 0.0 0.00 0.00 0.00 99 1013.1
20260510051557 68 72 0.0 2.0 0.00 0.00 0.00 99 1013.2
20260510051054 68 124 0.0 3.0 0.00 0.00 0.00 99 1013.3
20260510050552 68 197 2.0 3.0 0.00 0.00 0.00 99 1013.2
20260510050049 68 149 2.0 3.0 0.00 2.11 2.11 99 1013.3
20260510045546 68 182 4.0 6.0 0.00 2.11 2.11 99 1013.2
20260510045042 68 245 1.0 4.0 0.00 2.11 2.11 99 1013.2
20260510044538 68 159 4.0 4.0 0.00 2.11 2.11 99 1013.1
20260510044036 68 157 2.0 4.0 0.00 2.11 2.11 99 1013.1
20260510043531 68 170 3.0 4.0 0.00 2.11 2.11 99 1013.4
20260510043027 68 143 1.0 2.0 0.00 2.11 2.11 99 1013.4
20260510042521 69 154 2.0 3.0 0.00 2.11 2.11 99 1013.5
20260510042021 69 147 2.0 4.0 0.00 2.11 2.11 99 1013.6
20260510041520 69 142 1.0 2.0 0.00 2.11 2.11 99 1013.6
20260510041017 69 146 2.0 3.0 0.00 2.11 2.11 99 1013.5
20260510040513 68 143 1.0 4.0 0.00 2.11 2.11 99 1013.4
20260510040009 68 207 3.0 8.0 0.00 2.11 2.11 99 1013.1
20260510035506 68 177 8.0 10.0 0.00 2.11 2.11 99 1013.2
20260510035005 68 160 3.0 9.0 0.00 2.11 2.11 99 1013.4
20260510034504 68 174 5.0 7.0 0.00 2.11 2.11 99 1013.6
20260510034000 68 165 5.0 9.0 0.00 2.11 2.11 99 1013.8
20260510033456 68 196 4.0 6.0 0.00 2.11 2.11 99 1014.0
20260510032954 68 222 4.0 4.0 0.00 2.11 2.11 99 1014.1
20260510032451 68 258 0.0 1.0 0.00 2.11 2.11 99 1014.1
20260510031951 68 243 0.0 1.0 0.00 2.11 2.11 99 1013.9
20260510031447 68 242 0.0 0.0 0.00 2.11 2.11 99 1013.7
20260510030942 68 269 0.0 0.0 0.00 2.11 2.11 99 1014.1
20260510030437 68 238 0.0 2.0 0.00 2.11 2.11 99 1014.3
20260510025936 68 237 0.0 0.0 0.00 2.11 2.11 99 1014.4
20260510025433 68 267 0.0 0.0 0.00 2.11 2.11 99 1014.1
20260510024930 68 276 0.0 0.0 0.00 2.11 2.11 99 1014.3
20260510024426 68 258 0.0 0.0 0.00 2.11 2.11 99 1014.5
20260510023922 68 263 0.0 0.0 0.00 2.11 2.11 99 1014.3
20260510023419 68 269 0.0 0.0 0.00 2.11 2.11 99 1013.9
20260510022916 68 224 3.0 4.0 0.00 2.11 2.11 99 1013.7
20260510022415 68 239 0.0 2.0 0.00 2.11 2.11 99 1013.6
20260510021914 68 199 2.0 2.0 0.00 2.11 2.11 99 1013.5
20260510021413 68 195 1.0 3.0 0.00 2.11 2.11 99 1013.4
20260510020909 68 212 2.0 4.0 0.00 2.11 2.11 99 1013.5
20260510020404 68 217 0.0 2.0 0.00 2.11 2.11 99 1013.8
20260510015900 68 176 2.0 3.0 0.00 2.11 2.11 99 1013.7
20260510015356 68 222 0.0 2.0 0.00 2.11 2.11 99 1013.9
20260510014851 68 206 1.0 3.0 0.00 2.11 2.11 99 1013.7
20260510014349 68 210 4.0 7.0 0.00 2.11 2.11 99 1013.6
20260510013845 68 192 2.0 6.0 0.00 2.11 2.11 99 1013.7
20260510013340 68 185 4.0 7.0 0.00 2.11 2.11 99 1013.5
20260510012835 68 121 1.0 4.0 0.00 2.11 2.11 99 1013.3
20260510012335 68 173 3.0 4.0 0.00 2.11 2.11 99 1013.5
20260510011830 69 122 3.0 4.0 0.00 2.11 2.11 99 1013.3
20260510011326 69 202 4.0 6.0 0.00 2.11 2.11 99 1013.4
20260510010823 69 146 3.0 7.0 0.00 2.11 2.11 99 1013.1
20260510010320 69 233 3.0 6.0 0.00 2.11 2.11 99 1013.2
20260510005817 69 170 5.0 7.0 0.00 2.11 2.11 99 1013.2
20260510005313 69 191 2.0 6.0 0.00 2.11 2.11 99 1013.3
20260510004811 69 191 4.0 6.0 0.00 2.11 2.11 99 1013.1
20260510004308 69 222 4.0 7.0 0.00 2.11 2.11 99 1013.3
20260510003805 69 123 3.0 6.0 0.00 2.11 2.11 99 1013.2
20260510003302 69 148 2.0 3.0 0.00 2.11 2.11 99 1013.2
20260510002801 69 155 3.0 8.0 0.00 2.11 2.11 99 1013.1
20260510002259 69 142 1.0 4.0 0.00 2.11 2.11 99 1013.1
20260510001755 69 161 2.0 3.0 0.00 2.11 2.11 99 1013.2
20260510001253 69 153 1.0 1.0 0.00 2.11 2.11 99 1013.2
20260510000748 69 185 0.0 1.0 0.00 2.11 2.11 99 1013.1
20260510000248 69 169 2.0 4.0 0.00 2.11 2.11 99 1013.1
20260509235744 69 163 3.0 3.0 0.00 2.11 2.11 99 1013.0
20260509235240 69 150 1.0 3.0 0.00 2.11 2.11 99 1013.3
20260509234735 69 219 1.0 3.0 0.00 2.11 2.11 99 1013.2
20260509234233 69 149 3.0 4.0 0.00 2.11 2.11 99 1013.0
20260509233731 69 173 1.0 3.0 0.07 2.11 2.11 99 1013.1
20260509233228 69 189 7.0 8.0 0.07 2.11 2.11 99 1012.9
20260509232724 69 208 2.0 6.0 0.00 2.10 2.10 99 1012.9
20260509232221 69 117 3.0 7.0 0.05 2.10 2.10 99 1013.2
20260509231717 69 185 2.0 2.0 0.12 2.10 2.10 99 1013.4
20260509231215 69 204 2.0 4.0 0.12 2.09 2.09 99 1013.6
20260509230713 69 151 0.0 2.0 0.17 2.08 2.08 99 1013.5
20260509230209 69 221 1.0 1.0 0.12 2.06 2.06 99 1013.4
20260509225705 69 169 2.0 6.0 0.00 2.04 2.04 99 1013.4
20260509225201 69 189 3.0 4.0 0.05 2.04 2.04 99 1013.5
20260509224656 69 214 2.0 3.0 0.05 2.04 2.04 99 1013.3
20260509224154 69 214 4.0 4.0 0.00 2.03 2.03 99 1013.3
20260509223650 69 163 3.0 4.0 0.00 2.03 2.03 99 1013.0
20260509223147 69 204 2.0 6.0 0.00 2.03 2.03 99 1012.9
20260509222644 69 199 3.0 6.0 0.00 2.03 2.03 99 1013.0
20260509222139 69 157 3.0 3.0 0.00 2.03 2.03 99 1012.8
20260509221636 69 195 2.0 3.0 0.00 2.03 2.03 99 1012.6
20260509221132 69 148 2.0 3.0 0.00 2.03 2.03 99 1012.6
20260509220628 69 162 0.0 0.0 0.00 2.03 2.03 99 1012.4
20260509220124 69 157 0.0 2.0 0.00 2.03 2.03 99 1012.5
20260509215620 69 96 0.0 2.0 0.07 2.03 2.03 99 1012.8
20260509215117 69 200 2.0 4.0 0.07 2.03 2.03 99 1013.1
20260509214614 69 247 0.0 2.0 0.00 2.02 2.02 99 1012.7
20260509214111 69 216 4.0 4.0 0.00 2.02 2.02 99 1013.0
20260509213607 69 238 2.0 7.0 0.00 2.02 2.02 99 1013.2
20260509213103 69 224 2.0 4.0 0.00 2.02 2.02 99 1013.1
20260509212601 69 201 4.0 9.0 0.00 2.02 2.02 99 1012.7
20260509212058 69 156 2.0 4.0 0.00 2.02 2.02 99 1012.6
20260509211554 68 144 4.0 6.0 0.00 2.02 2.02 99 1012.5
20260509211050 68 151 3.0 9.0 0.00 2.02 2.02 99 1012.4
20260509210547 68 146 4.0 4.0 0.00 2.02 2.02 99 1012.3
20260509210044 68 154 6.0 8.0 0.00 2.02 2.02 99 1012.4
20260509205544 69 186 6.0 8.0 0.00 2.02 2.02 99 1012.2
20260509205039 69 210 3.0 4.0 0.00 2.02 2.02 99 1012.3
20260509204536 69 122 5.0 6.0 0.00 2.02 2.02 99 1012.0
20260509204032 69 108 4.0 6.0 0.00 2.02 2.02 99 1012.4
20260509203528 69 151 3.0 4.0 0.00 2.02 2.02 99 1012.4
20260509203027 68 128 4.0 8.0 0.00 2.02 2.02 99 1012.4
20260509202521 68 166 2.0 6.0 0.00 2.02 2.02 99 1012.5
20260509202017 68 161 3.0 3.0 0.00 2.02 2.02 99 1013.0
20260509201512 68 201 2.0 3.0 0.00 2.02 2.02 99 1012.9
20260509201010 68 99 1.0 7.0 0.00 2.02 2.02 99 1013.2
20260509200510 68 174 0.0 1.0 0.07 2.02 2.02 99 1013.6
20260509200007 68 232 2.0 2.0 0.12 2.02 2.02 99 1013.6
20260509195502 68 193 4.0 6.0 0.12 2.01 2.01 99 1013.6
20260509195001 68 204 2.0 3.0 0.12 2.00 2.00 99 1013.5
20260509194457 68 189 0.0 2.0 0.05 1.99 1.99 99 1013.6
20260509193955 68 193 0.0 4.0 0.07 1.98 1.98 99 1013.5
20260509193454 68 119 2.0 7.0 0.07 1.98 1.98 99 1013.4
20260509192951 68 132 3.0 4.0 0.00 1.97 1.97 99 1013.6
20260509192448 68 143 2.0 3.0 0.05 1.97 1.97 99 1013.7
20260509191943 67 142 1.0 3.0 0.00 1.96 1.96 99 1013.9
20260509191438 67 188 1.0 3.0 0.07 1.96 1.96 99 1014.3
20260509190934 67 259 0.0 0.0 0.19 1.96 1.96 99 1014.4
20260509190431 67 238 0.0 0.0 0.07 1.94 1.94 99 1014.3
20260509185929 67 167 0.0 2.0 0.05 1.93 1.93 99 1014.3
20260509185426 67 201 2.0 4.0 0.05 1.93 1.93 99 1014.1
20260509184923 67 151 4.0 7.0 0.07 1.92 1.92 99 1013.8
20260509184420 67 149 2.0 3.0 0.12 1.92 1.92 99 1013.7
20260509183917 67 104 1.0 3.0 0.12 1.91 1.91 99 1013.7
20260509183417 67 245 0.0 2.0 0.14 1.90 1.90 99 1013.8
20260509182914 67 125 4.0 4.0 0.07 1.89 1.89 99 1013.5
20260509182410 67 218 0.0 0.0 0.05 1.88 1.88 99 1013.9
20260509181908 67 203 3.0 6.0 0.00 1.87 1.87 99 1014.1
20260509181405 67 227 1.0 4.0 0.07 1.87 1.87 99 1013.9
20260509180903 67 186 4.0 4.0 0.07 1.87 1.87 99 1013.7
20260509180358 67 160 2.0 4.0 0.00 1.86 1.86 99 1013.9
20260509175855 67 147 3.0 4.0 0.05 1.86 1.86 99 1013.8
20260509175351 67 96 3.0 7.0 0.12 1.86 1.86 99 1013.8
20260509174847 67 162 5.0 7.0 0.07 1.85 1.85 99 1013.9
20260509174344 67 114 2.0 7.0 0.05 1.84 1.84 99 1013.7
20260509173839 67 145 4.0 9.0 0.05 1.84 1.84 99 1013.5
20260509173335 67 135 11.0 14.0 0.00 1.83 1.83 99 1013.8
20260509172831 67 153 3.0 6.0 0.07 1.83 1.83 99 1014.2
20260509172328 67 106 4.0 4.0 0.12 1.83 1.83 99 1014.0
20260509171824 66 136 2.0 6.0 0.12 1.82 1.82 99 1014.5
20260509171320 66 201 4.0 6.0 0.38 1.81 1.81 99 1014.3
20260509170816 66 119 1.0 3.0 0.54 1.79 1.79 99 1014.2
20260509170312 66 130 4.0 6.0 0.47 1.74 1.74 99 1014.3
20260509165812 66 198 3.0 6.0 0.66 1.69 1.69 99 1014.5
20260509165307 66 91 2.0 3.0 0.78 1.65 1.65 99 1014.3
20260509164803 66 98 1.0 4.0 0.97 1.57 1.57 99 1014.1
20260509164259 66 85 3.0 7.0 1.09 1.52 1.52 99 1014.3
20260509163756 66 71 4.0 6.0 0.61 1.42 1.42 99 1014.3
20260509163252 66 91 1.0 4.0 0.28 1.34 1.34 99 1014.7
20260509162751 66 84 1.0 4.0 0.24 1.31 1.31 99 1014.7
20260509162245 66 129 5.0 9.0 0.12 1.29 1.29 99 1014.5
20260509161741 66 112 6.0 10.0 0.07 1.27 1.27 99 1014.7
20260509161237 66 128 4.0 9.0 0.26 1.27 1.27 99 1014.8
20260509160733 66 126 7.0 11.0 0.47 1.25 1.25 99 1014.7
20260509160230 66 82 5.0 9.0 0.47 1.22 1.22 99 1014.9
20260509155724 66 138 2.0 10.0 0.59 1.17 1.17 99 1015.1
20260509155221 66 130 5.0 7.0 0.73 1.13 1.13 99 1014.7
20260509154717 66 66 4.0 6.0 0.66 1.07 1.07 99 1014.8
20260509154214 66 88 3.0 8.0 0.47 1.01 1.01 99 1015.1
20260509153712 66 92 7.0 10.0 0.35 0.95 0.95 99 1014.6